owner,sensor,date,latitude,longitude,vertical_datum,sea_water_practical_salinity,qcFlag 
COMPS,ioos:station:USF.COMPS:ANC:1,2009-12-01T00:00:00Z,28.1930,-82.7890,1.0,22.31,1111122 
COMPS,ioos:station:USF.COMPS:ANC:1,2009-12-01T00:06:00Z,28.1930,-82.7890,1.0,22.321,1111122 
COMPS,ioos:station:USF.COMPS:ANC:1,2009-12-01T00:12:00Z,28.1930,-82.7890,1.0,22.294,1111122 
COMPS,ioos:station:USF.COMPS:ANC:1,2009-12-01T00:18:00Z,28.1930,-82.7890,1.0,22.323,1111122 
COMPS,ioos:station:USF.COMPS:ANC:1,2009-12-01T00:24:00Z,28.1930,-82.7890,1.0,22.342,1111122 
COMPS,ioos:station:USF.COMPS:ANC:1,2009-12-01T00:30:00Z,28.1930,-82.7890,1.0,22.381,1111122 
COMPS,ioos:station:USF.COMPS:ANC:1,2009-12-01T00:36:00Z,28.1930,-82.7890,1.0,22.286,1111122 
COMPS,ioos:station:USF.COMPS:ANC:1,2009-12-01T00:42:00Z,28.1930,-82.7890,1.0,22.229,1111122 
COMPS,ioos:station:USF.COMPS:ANC:1,2009-12-01T00:48:00Z,28.1930,-82.7890,1.0,22.309,1111122 
COMPS,ioos:station:USF.COMPS:ANC:1,2009-12-01T00:54:00Z,28.1930,-82.7890,1.0,22.314,1111122 
COMPS,ioos:station:USF.COMPS:ANC:1,2009-12-01T01:00:00Z,28.1930,-82.7890,1.0,22.316,1111122 
COMPS,ioos:station:USF.COMPS:ANC:1,2009-12-01T01:06:00Z,28.1930,-82.7890,1.0,22.347,1111122 
COMPS,ioos:station:USF.COMPS:ANC:1,2009-12-01T01:12:00Z,28.1930,-82.7890,1.0,22.355,1111122 
COMPS,ioos:station:USF.COMPS:ANC:1,2009-12-01T01:18:00Z,28.1930,-82.7890,1.0,22.266,1111122 
COMPS,ioos:station:USF.COMPS:ANC:1,2009-12-01T01:24:00Z,28.1930,-82.7890,1.0,22.215,1111122 
COMPS,ioos:station:USF.COMPS:ANC:1,2009-12-01T01:30:00Z,28.1930,-82.7890,1.0,22.01,1111122 
COMPS,ioos:station:USF.COMPS:ANC:1,2009-12-01T01:36:00Z,28.1930,-82.7890,1.0,22.113,1111122 
COMPS,ioos:station:USF.COMPS:ANC:1,2009-12-01T01:42:00Z,28.1930,-82.7890,1.0,22.143,1111122 
COMPS,ioos:station:USF.COMPS:ANC:1,2009-12-01T01:48:00Z,28.1930,-82.7890,1.0,22.355,1111122 
COMPS,ioos:station:USF.COMPS:ANC:1,2009-12-01T01:54:00Z,28.1930,-82.7890,1.0,21.871,1111122 
COMPS,ioos:station:USF.COMPS:ANC:1,2009-12-01T02:00:00Z,28.1930,-82.7890,1.0,22.366,1111122 
COMPS,ioos:station:USF.COMPS:ANC:1,2009-12-01T02:06:00Z,28.1930,-82.7890,1.0,22.431,1111122 
COMPS,ioos:station:USF.COMPS:ANC:1,2009-12-01T02:12:00Z,28.1930,-82.7890,1.0,22.457,1111122 
COMPS,ioos:station:USF.COMPS:ANC:1,2009-12-01T02:18:00Z,28.1930,-82.7890,1.0,22.426,1111122 
COMPS,ioos:station:USF.COMPS:ANC:1,2009-12-01T02:24:00Z,28.1930,-82.7890,1.0,22.197,1111122 
COMPS,ioos:station:USF.COMPS:ANC:1,2009-12-01T02:30:00Z,28.1930,-82.7890,1.0,22.26,1111122 
COMPS,ioos:station:USF.COMPS:ANC:1,2009-12-01T02:36:00Z,28.1930,-82.7890,1.0,22.174,1111122 
COMPS,ioos:station:USF.COMPS:ANC:1,2009-12-01T02:42:00Z,28.1930,-82.7890,1.0,22.502,1111122 
COMPS,ioos:station:USF.COMPS:ANC:1,2009-12-01T02:48:00Z,28.1930,-82.7890,1.0,22.521,1111122 
COMPS,ioos:station:USF.COMPS:ANC:1,2009-12-01T02:54:00Z,28.1930,-82.7890,1.0,22.516,1111122 
COMPS,ioos:station:USF.COMPS:ANC:1,2009-12-01T03:00:00Z,28.1930,-82.7890,1.0,22.485,1111122 
COMPS,ioos:station:USF.COMPS:ANC:1,2009-12-01T03:06:00Z,28.1930,-82.7890,1.0,22.377,1111122 
COMPS,ioos:station:USF.COMPS:ANC:1,2009-12-01T03:12:00Z,28.1930,-82.7890,1.0,22.429,1111122 
COMPS,ioos:station:USF.COMPS:ANC:1,2009-12-01T03:18:00Z,28.1930,-82.7890,1.0,22.389,1111122 
COMPS,ioos:station:USF.COMPS:ANC:1,2009-12-01T03:24:00Z,28.1930,-82.7890,1.0,22.406,1111122 
COMPS,ioos:station:USF.COMPS:ANC:1,2009-12-01T03:30:00Z,28.1930,-82.7890,1.0,22.414,1111122 
COMPS,ioos:station:USF.COMPS:ANC:1,2009-12-01T03:36:00Z,28.1930,-82.7890,1.0,22.393,1111122 
COMPS,ioos:station:USF.COMPS:ANC:1,2009-12-01T03:42:00Z,28.1930,-82.7890,1.0,22.409,1111122 
COMPS,ioos:station:USF.COMPS:ANC:1,2009-12-01T03:48:00Z,28.1930,-82.7890,1.0,22.13,1111122 
COMPS,ioos:station:USF.COMPS:ANC:1,2009-12-01T03:54:00Z,28.1930,-82.7890,1.0,22.474,1111122 
COMPS,ioos:station:USF.COMPS:ANC:1,2009-12-01T04:00:00Z,28.1930,-82.7890,1.0,22.45,1111122 
COMPS,ioos:station:USF.COMPS:ANC:1,2009-12-01T04:06:00Z,28.1930,-82.7890,1.0,22.476,1111122 
COMPS,ioos:station:USF.COMPS:ANC:1,2009-12-01T04:12:00Z,28.1930,-82.7890,1.0,22.47,1111122 
COMPS,ioos:station:USF.COMPS:ANC:1,2009-12-01T04:18:00Z,28.1930,-82.7890,1.0,22.478,1111122 
COMPS,ioos:station:USF.COMPS:ANC:1,2009-12-01T04:24:00Z,28.1930,-82.7890,1.0,22.486,1111122 
COMPS,ioos:station:USF.COMPS:ANC:1,2009-12-01T04:30:00Z,28.1930,-82.7890,1.0,22.478,1111122 
COMPS,ioos:station:USF.COMPS:ANC:1,2009-12-01T04:36:00Z,28.1930,-82.7890,1.0,22.485,1111122 
COMPS,ioos:station:USF.COMPS:ANC:1,2009-12-01T04:42:00Z,28.1930,-82.7890,1.0,22.485,1111122 
COMPS,ioos:station:USF.COMPS:ANC:1,2009-12-01T04:48:00Z,28.1930,-82.7890,1.0,22.48,1111122 
COMPS,ioos:station:USF.COMPS:ANC:1,2009-12-01T04:54:00Z,28.1930,-82.7890,1.0,22.483,1111122 
COMPS,ioos:station:USF.COMPS:ANC:1,2009-12-01T05:00:00Z,28.1930,-82.7890,1.0,22.467,1111122 
COMPS,ioos:station:USF.COMPS:ANC:1,2009-12-01T05:06:00Z,28.1930,-82.7890,1.0,22.466,1111122 
COMPS,ioos:station:USF.COMPS:ANC:1,2009-12-01T05:12:00Z,28.1930,-82.7890,1.0,22.447,1111122 
COMPS,ioos:station:USF.COMPS:ANC:1,2009-12-01T05:18:00Z,28.1930,-82.7890,1.0,22.441,1111122 
COMPS,ioos:station:USF.COMPS:ANC:1,2009-12-01T05:24:00Z,28.1930,-82.7890,1.0,22.459,1111122 
COMPS,ioos:station:USF.COMPS:ANC:1,2009-12-01T05:30:00Z,28.1930,-82.7890,1.0,22.462,1111122 
COMPS,ioos:station:USF.COMPS:ANC:1,2009-12-01T05:36:00Z,28.1930,-82.7890,1.0,22.472,1111122 
COMPS,ioos:station:USF.COMPS:ANC:1,2009-12-01T05:42:00Z,28.1930,-82.7890,1.0,22.484,1111122 
COMPS,ioos:station:USF.COMPS:ANC:1,2009-12-01T05:48:00Z,28.1930,-82.7890,1.0,22.494,1111122 
COMPS,ioos:station:USF.COMPS:ANC:1,2009-12-01T05:54:00Z,28.1930,-82.7890,1.0,22.229,1111122 
COMPS,ioos:station:USF.COMPS:ANC:1,2009-12-01T06:00:00Z,28.1930,-82.7890,1.0,21.361,1111122 
COMPS,ioos:station:USF.COMPS:ANC:1,2009-12-01T06:06:00Z,28.1930,-82.7890,1.0,22.667,1111122 
COMPS,ioos:station:USF.COMPS:ANC:1,2009-12-01T06:12:00Z,28.1930,-82.7890,1.0,22.728,1111122 
COMPS,ioos:station:USF.COMPS:ANC:1,2009-12-01T06:18:00Z,28.1930,-82.7890,1.0,22.723,1111122 
COMPS,ioos:station:USF.COMPS:ANC:1,2009-12-01T06:24:00Z,28.1930,-82.7890,1.0,22.754,1111122 
COMPS,ioos:station:USF.COMPS:ANC:1,2009-12-01T06:30:00Z,28.1930,-82.7890,1.0,22.749,1111122 
COMPS,ioos:station:USF.COMPS:ANC:1,2009-12-01T06:36:00Z,28.1930,-82.7890,1.0,22.766,1111122 
COMPS,ioos:station:USF.COMPS:ANC:1,2009-12-01T06:42:00Z,28.1930,-82.7890,1.0,22.72,1111122 
COMPS,ioos:station:USF.COMPS:ANC:1,2009-12-01T06:48:00Z,28.1930,-82.7890,1.0,22.776,1111122 
COMPS,ioos:station:USF.COMPS:ANC:1,2009-12-01T06:54:00Z,28.1930,-82.7890,1.0,22.756,1111122 
COMPS,ioos:station:USF.COMPS:ANC:1,2009-12-01T07:00:00Z,28.1930,-82.7890,1.0,22.766,1111122 
COMPS,ioos:station:USF.COMPS:ANC:1,2009-12-01T07:06:00Z,28.1930,-82.7890,1.0,22.773,1111122 
COMPS,ioos:station:USF.COMPS:ANC:1,2009-12-01T07:12:00Z,28.1930,-82.7890,1.0,22.77,1111122 
COMPS,ioos:station:USF.COMPS:ANC:1,2009-12-01T07:18:00Z,28.1930,-82.7890,1.0,22.778,1111122 
COMPS,ioos:station:USF.COMPS:ANC:1,2009-12-01T07:24:00Z,28.1930,-82.7890,1.0,22.77,1111122 
COMPS,ioos:station:USF.COMPS:ANC:1,2009-12-01T07:30:00Z,28.1930,-82.7890,1.0,22.794,1111122 
COMPS,ioos:station:USF.COMPS:ANC:1,2009-12-01T07:36:00Z,28.1930,-82.7890,1.0,22.794,1111122 
COMPS,ioos:station:USF.COMPS:ANC:1,2009-12-01T07:42:00Z,28.1930,-82.7890,1.0,22.809,1111122 
COMPS,ioos:station:USF.COMPS:ANC:1,2009-12-01T07:48:00Z,28.1930,-82.7890,1.0,22.824,1111122 
COMPS,ioos:station:USF.COMPS:ANC:1,2009-12-01T07:54:00Z,28.1930,-82.7890,1.0,22.824,1111122 
COMPS,ioos:station:USF.COMPS:ANC:1,2009-12-01T08:00:00Z,28.1930,-82.7890,1.0,22.832,1111122 
COMPS,ioos:station:USF.COMPS:ANC:1,2009-12-01T08:06:00Z,28.1930,-82.7890,1.0,22.848,1111122 
COMPS,ioos:station:USF.COMPS:ANC:1,2009-12-01T08:12:00Z,28.1930,-82.7890,1.0,22.85,1111122 
COMPS,ioos:station:USF.COMPS:ANC:1,2009-12-01T08:18:00Z,28.1930,-82.7890,1.0,22.839,1111122 
COMPS,ioos:station:USF.COMPS:ANC:1,2009-12-01T08:24:00Z,28.1930,-82.7890,1.0,22.857,1111122 
COMPS,ioos:station:USF.COMPS:ANC:1,2009-12-01T08:30:00Z,28.1930,-82.7890,1.0,22.87,1111122 
COMPS,ioos:station:USF.COMPS:ANC:1,2009-12-01T08:36:00Z,28.1930,-82.7890,1.0,22.852,1111122 
COMPS,ioos:station:USF.COMPS:ANC:1,2009-12-01T08:42:00Z,28.1930,-82.7890,1.0,22.884,1111122 
COMPS,ioos:station:USF.COMPS:ANC:1,2009-12-01T08:48:00Z,28.1930,-82.7890,1.0,22.89,1111122 
COMPS,ioos:station:USF.COMPS:ANC:1,2009-12-01T08:54:00Z,28.1930,-82.7890,1.0,22.893,1111122 
COMPS,ioos:station:USF.COMPS:ANC:1,2009-12-01T09:00:00Z,28.1930,-82.7890,1.0,22.895,1111122 
COMPS,ioos:station:USF.COMPS:ANC:1,2009-12-01T09:06:00Z,28.1930,-82.7890,1.0,22.882,1111122 
COMPS,ioos:station:USF.COMPS:ANC:1,2009-12-01T09:12:00Z,28.1930,-82.7890,1.0,22.89,1111122 
COMPS,ioos:station:USF.COMPS:ANC:1,2009-12-01T09:18:00Z,28.1930,-82.7890,1.0,22.901,1111122 
COMPS,ioos:station:USF.COMPS:ANC:1,2009-12-01T09:24:00Z,28.1930,-82.7890,1.0,22.916,1111122 
COMPS,ioos:station:USF.COMPS:ANC:1,2009-12-01T09:30:00Z,28.1930,-82.7890,1.0,22.916,1111122 
COMPS,ioos:station:USF.COMPS:ANC:1,2009-12-01T09:36:00Z,28.1930,-82.7890,1.0,22.935,1111122 
COMPS,ioos:station:USF.COMPS:ANC:1,2009-12-01T09:42:00Z,28.1930,-82.7890,1.0,22.938,1111122 
COMPS,ioos:station:USF.COMPS:ANC:1,2009-12-01T09:48:00Z,28.1930,-82.7890,1.0,22.933,1111122 
COMPS,ioos:station:USF.COMPS:ANC:1,2009-12-01T09:54:00Z,28.1930,-82.7890,1.0,22.944,1111122 
COMPS,ioos:station:USF.COMPS:ANC:1,2009-12-01T10:00:00Z,28.1930,-82.7890,1.0,22.96,1111122 
COMPS,ioos:station:USF.COMPS:ANC:1,2009-12-01T10:06:00Z,28.1930,-82.7890,1.0,22.969,1111122 
COMPS,ioos:station:USF.COMPS:ANC:1,2009-12-01T10:12:00Z,28.1930,-82.7890,1.0,22.97,1111122 
COMPS,ioos:station:USF.COMPS:ANC:1,2009-12-01T10:18:00Z,28.1930,-82.7890,1.0,22.973,1111122 
COMPS,ioos:station:USF.COMPS:ANC:1,2009-12-01T10:24:00Z,28.1930,-82.7890,1.0,22.963,1111122 
COMPS,ioos:station:USF.COMPS:ANC:1,2009-12-01T10:30:00Z,28.1930,-82.7890,1.0,22.438,1111122 
COMPS,ioos:station:USF.COMPS:ANC:1,2009-12-01T10:36:00Z,28.1930,-82.7890,1.0,22.945,1111122 
COMPS,ioos:station:USF.COMPS:ANC:1,2009-12-01T10:42:00Z,28.1930,-82.7890,1.0,22.928,1111122 
COMPS,ioos:station:USF.COMPS:ANC:1,2009-12-01T10:48:00Z,28.1930,-82.7890,1.0,22.939,1111122 
COMPS,ioos:station:USF.COMPS:ANC:1,2009-12-01T10:54:00Z,28.1930,-82.7890,1.0,22.929,1111122 
COMPS,ioos:station:USF.COMPS:ANC:1,2009-12-01T11:00:00Z,28.1930,-82.7890,1.0,22.908,1111122 
COMPS,ioos:station:USF.COMPS:ANC:1,2009-12-01T11:06:00Z,28.1930,-82.7890,1.0,22.9,1111122 
COMPS,ioos:station:USF.COMPS:ANC:1,2009-12-01T11:12:00Z,28.1930,-82.7890,1.0,22.905,1111122 
COMPS,ioos:station:USF.COMPS:ANC:1,2009-12-01T11:18:00Z,28.1930,-82.7890,1.0,22.89,1111122 
COMPS,ioos:station:USF.COMPS:ANC:1,2009-12-01T11:24:00Z,28.1930,-82.7890,1.0,22.882,1111122 
COMPS,ioos:station:USF.COMPS:ANC:1,2009-12-01T11:30:00Z,28.1930,-82.7890,1.0,22.882,1111122 
COMPS,ioos:station:USF.COMPS:ANC:1,2009-12-01T11:36:00Z,28.1930,-82.7890,1.0,22.869,1111122 
COMPS,ioos:station:USF.COMPS:ANC:1,2009-12-01T11:42:00Z,28.1930,-82.7890,1.0,22.872,1111122 
COMPS,ioos:station:USF.COMPS:ANC:1,2009-12-01T11:48:00Z,28.1930,-82.7890,1.0,22.866,1111122 
COMPS,ioos:station:USF.COMPS:ANC:1,2009-12-01T11:54:00Z,28.1930,-82.7890,1.0,22.845,1111122 
COMPS,ioos:station:USF.COMPS:ANC:1,2009-12-01T12:00:00Z,28.1930,-82.7890,1.0,22.819,1111122 
COMPS,ioos:station:USF.COMPS:ANC:1,2009-12-01T12:06:00Z,28.1930,-82.7890,1.0,22.793,1111122 
COMPS,ioos:station:USF.COMPS:ANC:1,2009-12-01T12:12:00Z,28.1930,-82.7890,1.0,22.759,1111122 
COMPS,ioos:station:USF.COMPS:ANC:1,2009-12-01T12:18:00Z,28.1930,-82.7890,1.0,22.746,1111122 
COMPS,ioos:station:USF.COMPS:ANC:1,2009-12-01T12:24:00Z,28.1930,-82.7890,1.0,22.727,1111122 
COMPS,ioos:station:USF.COMPS:ANC:1,2009-12-01T12:30:00Z,28.1930,-82.7890,1.0,22.701,1111122 
COMPS,ioos:station:USF.COMPS:ANC:1,2009-12-01T12:36:00Z,28.1930,-82.7890,1.0,22.68,1111122 
COMPS,ioos:station:USF.COMPS:ANC:1,2009-12-01T12:42:00Z,28.1930,-82.7890,1.0,22.659,1111122 
COMPS,ioos:station:USF.COMPS:ANC:1,2009-12-01T12:48:00Z,28.1930,-82.7890,1.0,22.599,1111122 
COMPS,ioos:station:USF.COMPS:ANC:1,2009-12-01T12:54:00Z,28.1930,-82.7890,1.0,22.548,1111122 
COMPS,ioos:station:USF.COMPS:ANC:1,2009-12-01T13:00:00Z,28.1930,-82.7890,1.0,22.535,1111122 
COMPS,ioos:station:USF.COMPS:ANC:1,2009-12-01T13:06:00Z,28.1930,-82.7890,1.0,22.506,1111122 
COMPS,ioos:station:USF.COMPS:ANC:1,2009-12-01T13:12:00Z,28.1930,-82.7890,1.0,22.478,1111122 
COMPS,ioos:station:USF.COMPS:ANC:1,2009-12-01T13:18:00Z,28.1930,-82.7890,1.0,22.457,1111122 
COMPS,ioos:station:USF.COMPS:ANC:1,2009-12-01T13:24:00Z,28.1930,-82.7890,1.0,22.428,1111122 
COMPS,ioos:station:USF.COMPS:ANC:1,2009-12-01T13:30:00Z,28.1930,-82.7890,1.0,22.402,1111122 
COMPS,ioos:station:USF.COMPS:ANC:1,2009-12-01T13:36:00Z,28.1930,-82.7890,1.0,22.356,1111122 
COMPS,ioos:station:USF.COMPS:ANC:1,2009-12-01T13:42:00Z,28.1930,-82.7890,1.0,22.309,1111122 
COMPS,ioos:station:USF.COMPS:ANC:1,2009-12-01T13:48:00Z,28.1930,-82.7890,1.0,22.252,1111122 
COMPS,ioos:station:USF.COMPS:ANC:1,2009-12-01T13:54:00Z,28.1930,-82.7890,1.0,22.199,1111122 
COMPS,ioos:station:USF.COMPS:ANC:1,2009-12-01T14:00:00Z,28.1930,-82.7890,1.0,22.184,1111122 
COMPS,ioos:station:USF.COMPS:ANC:1,2009-12-01T14:06:00Z,28.1930,-82.7890,1.0,22.173,1111122 
COMPS,ioos:station:USF.COMPS:ANC:1,2009-12-01T14:12:00Z,28.1930,-82.7890,1.0,22.174,1111122 
COMPS,ioos:station:USF.COMPS:ANC:1,2009-12-01T14:18:00Z,28.1930,-82.7890,1.0,22.172,1111122 
COMPS,ioos:station:USF.COMPS:ANC:1,2009-12-01T14:24:00Z,28.1930,-82.7890,1.0,22.166,1111122 
COMPS,ioos:station:USF.COMPS:ANC:1,2009-12-01T14:30:00Z,28.1930,-82.7890,1.0,22.115,1111122 
COMPS,ioos:station:USF.COMPS:ANC:1,2009-12-01T14:36:00Z,28.1930,-82.7890,1.0,22.089,1111122 
COMPS,ioos:station:USF.COMPS:ANC:1,2009-12-01T14:42:00Z,28.1930,-82.7890,1.0,22.069,1111122 
COMPS,ioos:station:USF.COMPS:ANC:1,2009-12-01T14:48:00Z,28.1930,-82.7890,1.0,22.061,1111122 
COMPS,ioos:station:USF.COMPS:ANC:1,2009-12-01T14:54:00Z,28.1930,-82.7890,1.0,22.066,1111122 
COMPS,ioos:station:USF.COMPS:ANC:1,2009-12-01T15:00:00Z,28.1930,-82.7890,1.0,22.007,1111122 
COMPS,ioos:station:USF.COMPS:ANC:1,2009-12-01T15:06:00Z,28.1930,-82.7890,1.0,22.025,1111122 
COMPS,ioos:station:USF.COMPS:ANC:1,2009-12-01T15:12:00Z,28.1930,-82.7890,1.0,22.059,1111122 
COMPS,ioos:station:USF.COMPS:ANC:1,2009-12-01T15:18:00Z,28.1930,-82.7890,1.0,22.028,1111122 
COMPS,ioos:station:USF.COMPS:ANC:1,2009-12-01T15:24:00Z,28.1930,-82.7890,1.0,21.984,1111122 
COMPS,ioos:station:USF.COMPS:ANC:1,2009-12-01T15:30:00Z,28.1930,-82.7890,1.0,21.938,1111122 
COMPS,ioos:station:USF.COMPS:ANC:1,2009-12-01T15:36:00Z,28.1930,-82.7890,1.0,21.936,1111122 
COMPS,ioos:station:USF.COMPS:ANC:1,2009-12-01T15:42:00Z,28.1930,-82.7890,1.0,21.908,1111122 
COMPS,ioos:station:USF.COMPS:ANC:1,2009-12-01T15:48:00Z,28.1930,-82.7890,1.0,21.882,1111122 
COMPS,ioos:station:USF.COMPS:ANC:1,2009-12-01T15:54:00Z,28.1930,-82.7890,1.0,21.928,1111122 
COMPS,ioos:station:USF.COMPS:ANC:1,2009-12-01T16:00:00Z,28.1930,-82.7890,1.0,21.903,1111122 
COMPS,ioos:station:USF.COMPS:ANC:1,2009-12-01T16:06:00Z,28.1930,-82.7890,1.0,21.88,1111122 
COMPS,ioos:station:USF.COMPS:ANC:1,2009-12-01T16:12:00Z,28.1930,-82.7890,1.0,21.949,1111122 
COMPS,ioos:station:USF.COMPS:ANC:1,2009-12-01T16:18:00Z,28.1930,-82.7890,1.0,21.919,1111122 
COMPS,ioos:station:USF.COMPS:ANC:1,2009-12-01T16:24:00Z,28.1930,-82.7890,1.0,21.95,1111122 
COMPS,ioos:station:USF.COMPS:ANC:1,2009-12-01T16:30:00Z,28.1930,-82.7890,1.0,21.909,1111122 
COMPS,ioos:station:USF.COMPS:ANC:1,2009-12-01T16:36:00Z,28.1930,-82.7890,1.0,21.893,1111122 
COMPS,ioos:station:USF.COMPS:ANC:1,2009-12-01T16:42:00Z,28.1930,-82.7890,1.0,21.927,1111122 
COMPS,ioos:station:USF.COMPS:ANC:1,2009-12-01T16:48:00Z,28.1930,-82.7890,1.0,21.932,1111122 
COMPS,ioos:station:USF.COMPS:ANC:1,2009-12-01T16:54:00Z,28.1930,-82.7890,1.0,21.953,1111122 
COMPS,ioos:station:USF.COMPS:ANC:1,2009-12-01T17:00:00Z,28.1930,-82.7890,1.0,22.04,1111122 
COMPS,ioos:station:USF.COMPS:ANC:1,2009-12-01T17:06:00Z,28.1930,-82.7890,1.0,22.022,1111122 
COMPS,ioos:station:USF.COMPS:ANC:1,2009-12-01T17:12:00Z,28.1930,-82.7890,1.0,22.017,1111122 
COMPS,ioos:station:USF.COMPS:ANC:1,2009-12-01T17:18:00Z,28.1930,-82.7890,1.0,22.035,1111122 
COMPS,ioos:station:USF.COMPS:ANC:1,2009-12-01T17:24:00Z,28.1930,-82.7890,1.0,22.03,1111122 
COMPS,ioos:station:USF.COMPS:ANC:1,2009-12-01T17:30:00Z,28.1930,-82.7890,1.0,22.053,1111122 
COMPS,ioos:station:USF.COMPS:ANC:1,2009-12-01T17:36:00Z,28.1930,-82.7890,1.0,22.097,1111122 
COMPS,ioos:station:USF.COMPS:ANC:1,2009-12-01T17:42:00Z,28.1930,-82.7890,1.0,22.071,1111122 
COMPS,ioos:station:USF.COMPS:ANC:1,2009-12-01T17:48:00Z,28.1930,-82.7890,1.0,22.133,1111122 
COMPS,ioos:station:USF.COMPS:ANC:1,2009-12-01T17:54:00Z,28.1930,-82.7890,1.0,22.135,1111122 
COMPS,ioos:station:USF.COMPS:ANC:1,2009-12-01T18:00:00Z,28.1930,-82.7890,1.0,22.091,1111122 
COMPS,ioos:station:USF.COMPS:ANC:1,2009-12-01T18:06:00Z,28.1930,-82.7890,1.0,21.972,1111122 
COMPS,ioos:station:USF.COMPS:ANC:1,2009-12-01T18:12:00Z,28.1930,-82.7890,1.0,22.018,1111122 
COMPS,ioos:station:USF.COMPS:ANC:1,2009-12-01T18:18:00Z,28.1930,-82.7890,1.0,22.072,1111122 
COMPS,ioos:station:USF.COMPS:ANC:1,2009-12-01T18:24:00Z,28.1930,-82.7890,1.0,22.131,1111122 
COMPS,ioos:station:USF.COMPS:ANC:1,2009-12-01T18:30:00Z,28.1930,-82.7890,1.0,22.107,1111122 
COMPS,ioos:station:USF.COMPS:ANC:1,2009-12-01T18:36:00Z,28.1930,-82.7890,1.0,22.102,1111122 
COMPS,ioos:station:USF.COMPS:ANC:1,2009-12-01T18:42:00Z,28.1930,-82.7890,1.0,22.099,1111122 
COMPS,ioos:station:USF.COMPS:ANC:1,2009-12-01T18:48:00Z,28.1930,-82.7890,1.0,22.132,1111122 
COMPS,ioos:station:USF.COMPS:ANC:1,2009-12-01T18:54:00Z,28.1930,-82.7890,1.0,22.008,1111122 
COMPS,ioos:station:USF.COMPS:ANC:1,2009-12-01T19:00:00Z,28.1930,-82.7890,1.0,22.071,1111122 
COMPS,ioos:station:USF.COMPS:ANC:1,2009-12-01T19:06:00Z,28.1930,-82.7890,1.0,22.119,1111122 
COMPS,ioos:station:USF.COMPS:ANC:1,2009-12-01T19:12:00Z,28.1930,-82.7890,1.0,22.212,1111122 
COMPS,ioos:station:USF.COMPS:ANC:1,2009-12-01T19:18:00Z,28.1930,-82.7890,1.0,22.169,1111122 
COMPS,ioos:station:USF.COMPS:ANC:1,2009-12-01T19:24:00Z,28.1930,-82.7890,1.0,22.161,1111122 
COMPS,ioos:station:USF.COMPS:ANC:1,2009-12-01T19:30:00Z,28.1930,-82.7890,1.0,22.212,1111122 
COMPS,ioos:station:USF.COMPS:ANC:1,2009-12-01T19:36:00Z,28.1930,-82.7890,1.0,22.239,1111122 
COMPS,ioos:station:USF.COMPS:ANC:1,2009-12-01T19:42:00Z,28.1930,-82.7890,1.0,22.244,1111122 
COMPS,ioos:station:USF.COMPS:ANC:1,2009-12-01T19:48:00Z,28.1930,-82.7890,1.0,22.214,1111122 
COMPS,ioos:station:USF.COMPS:ANC:1,2009-12-01T19:54:00Z,28.1930,-82.7890,1.0,22.244,1111122 
COMPS,ioos:station:USF.COMPS:ANC:1,2009-12-01T20:00:00Z,28.1930,-82.7890,1.0,22.297,1111122 
COMPS,ioos:station:USF.COMPS:ANC:1,2009-12-01T20:06:00Z,28.1930,-82.7890,1.0,22.294,1111122 
COMPS,ioos:station:USF.COMPS:ANC:1,2009-12-01T20:12:00Z,28.1930,-82.7890,1.0,22.27,1111122 
COMPS,ioos:station:USF.COMPS:ANC:1,2009-12-01T20:18:00Z,28.1930,-82.7890,1.0,22.281,1111122 
COMPS,ioos:station:USF.COMPS:ANC:1,2009-12-01T20:24:00Z,28.1930,-82.7890,1.0,22.368,1111122 
COMPS,ioos:station:USF.COMPS:ANC:1,2009-12-01T20:30:00Z,28.1930,-82.7890,1.0,22.382,1111122 
COMPS,ioos:station:USF.COMPS:ANC:1,2009-12-01T20:36:00Z,28.1930,-82.7890,1.0,22.33,1111122 
COMPS,ioos:station:USF.COMPS:ANC:1,2009-12-01T20:42:00Z,28.1930,-82.7890,1.0,22.355,1111122 
COMPS,ioos:station:USF.COMPS:ANC:1,2009-12-01T20:48:00Z,28.1930,-82.7890,1.0,22.432,1111122 
COMPS,ioos:station:USF.COMPS:ANC:1,2009-12-01T20:54:00Z,28.1930,-82.7890,1.0,22.418,1111122 
COMPS,ioos:station:USF.COMPS:ANC:1,2009-12-01T21:00:00Z,28.1930,-82.7890,1.0,22.42,1111122 
COMPS,ioos:station:USF.COMPS:ANC:1,2009-12-01T21:06:00Z,28.1930,-82.7890,1.0,22.422,1111122 
COMPS,ioos:station:USF.COMPS:ANC:1,2009-12-01T21:12:00Z,28.1930,-82.7890,1.0,22.417,1111122 
COMPS,ioos:station:USF.COMPS:ANC:1,2009-12-01T21:18:00Z,28.1930,-82.7890,1.0,22.51,1111122 
COMPS,ioos:station:USF.COMPS:ANC:1,2009-12-01T21:24:00Z,28.1930,-82.7890,1.0,22.535,1111122 
COMPS,ioos:station:USF.COMPS:ANC:1,2009-12-01T21:30:00Z,28.1930,-82.7890,1.0,22.512,1111122 
COMPS,ioos:station:USF.COMPS:ANC:1,2009-12-01T21:36:00Z,28.1930,-82.7890,1.0,22.547,1111122 
COMPS,ioos:station:USF.COMPS:ANC:1,2009-12-01T21:42:00Z,28.1930,-82.7890,1.0,22.565,1111122 
COMPS,ioos:station:USF.COMPS:ANC:1,2009-12-01T21:48:00Z,28.1930,-82.7890,1.0,22.594,1111122 
COMPS,ioos:station:USF.COMPS:ANC:1,2009-12-01T21:54:00Z,28.1930,-82.7890,1.0,22.615,1111122 
COMPS,ioos:station:USF.COMPS:ANC:1,2009-12-01T22:00:00Z,28.1930,-82.7890,1.0,22.599,1111122 
COMPS,ioos:station:USF.COMPS:ANC:1,2009-12-01T22:06:00Z,28.1930,-82.7890,1.0,22.605,1111122 
COMPS,ioos:station:USF.COMPS:ANC:1,2009-12-01T22:12:00Z,28.1930,-82.7890,1.0,22.615,1111122 
COMPS,ioos:station:USF.COMPS:ANC:1,2009-12-01T22:18:00Z,28.1930,-82.7890,1.0,22.643,1111122 
COMPS,ioos:station:USF.COMPS:ANC:1,2009-12-01T22:24:00Z,28.1930,-82.7890,1.0,22.666,1111122 
COMPS,ioos:station:USF.COMPS:ANC:1,2009-12-01T22:30:00Z,28.1930,-82.7890,1.0,22.658,1111122 
COMPS,ioos:station:USF.COMPS:ANC:1,2009-12-01T22:36:00Z,28.1930,-82.7890,1.0,22.648,1111122 
COMPS,ioos:station:USF.COMPS:ANC:1,2009-12-01T22:42:00Z,28.1930,-82.7890,1.0,22.679,1111122 
COMPS,ioos:station:USF.COMPS:ANC:1,2009-12-01T22:48:00Z,28.1930,-82.7890,1.0,22.695,1111122 
COMPS,ioos:station:USF.COMPS:ANC:1,2009-12-01T22:54:00Z,28.1930,-82.7890,1.0,22.715,1111122 
COMPS,ioos:station:USF.COMPS:ANC:1,2009-12-01T23:00:00Z,28.1930,-82.7890,1.0,22.722,1111122 
COMPS,ioos:station:USF.COMPS:ANC:1,2009-12-01T23:06:00Z,28.1930,-82.7890,1.0,22.699,1111122 
COMPS,ioos:station:USF.COMPS:ANC:1,2009-12-01T23:12:00Z,28.1930,-82.7890,1.0,22.686,1111122 
COMPS,ioos:station:USF.COMPS:ANC:1,2009-12-01T23:18:00Z,28.1930,-82.7890,1.0,22.745,1111122 
COMPS,ioos:station:USF.COMPS:ANC:1,2009-12-01T23:24:00Z,28.1930,-82.7890,1.0,22.782,1111122 
COMPS,ioos:station:USF.COMPS:ANC:1,2009-12-01T23:30:00Z,28.1930,-82.7890,1.0,22.769,1111122 
COMPS,ioos:station:USF.COMPS:ANC:1,2009-12-01T23:36:00Z,28.1930,-82.7890,1.0,22.786,1111122 
COMPS,ioos:station:USF.COMPS:ANC:1,2009-12-01T23:42:00Z,28.1930,-82.7890,1.0,22.831,1111122 
COMPS,ioos:station:USF.COMPS:ANC:1,2009-12-01T23:48:00Z,28.1930,-82.7890,1.0,22.863,1111122 
COMPS,ioos:station:USF.COMPS:ANC:1,2009-12-01T23:54:00Z,28.1930,-82.7890,1.0,22.796,1111122 
COMPS,ioos:station:USF.COMPS:ANC:1,2009-12-02T00:00:00Z,28.1930,-82.7890,1.0,22.809,1111122 
COMPS,ioos:station:USF.COMPS:ANC:1,2009-12-02T00:06:00Z,28.1930,-82.7890,1.0,22.814,1111122 
COMPS,ioos:station:USF.COMPS:ANC:1,2009-12-02T00:12:00Z,28.1930,-82.7890,1.0,22.821,1111122 
COMPS,ioos:station:USF.COMPS:ANC:1,2009-12-02T00:18:00Z,28.1930,-82.7890,1.0,22.809,1111122 
COMPS,ioos:station:USF.COMPS:ANC:1,2009-12-02T00:24:00Z,28.1930,-82.7890,1.0,22.802,1111122 
COMPS,ioos:station:USF.COMPS:ANC:1,2009-12-02T00:30:00Z,28.1930,-82.7890,1.0,22.834,1111122 
COMPS,ioos:station:USF.COMPS:ANC:1,2009-12-02T00:36:00Z,28.1930,-82.7890,1.0,22.812,1111122 
COMPS,ioos:station:USF.COMPS:ANC:1,2009-12-02T00:42:00Z,28.1930,-82.7890,1.0,22.843,1111122 
COMPS,ioos:station:USF.COMPS:ANC:1,2009-12-02T00:48:00Z,28.1930,-82.7890,1.0,22.82,1111122 
COMPS,ioos:station:USF.COMPS:ANC:1,2009-12-02T00:54:00Z,28.1930,-82.7890,1.0,22.854,1111122 
COMPS,ioos:station:USF.COMPS:ANC:1,2009-12-02T01:00:00Z,28.1930,-82.7890,1.0,22.894,1111122 
COMPS,ioos:station:USF.COMPS:ANC:1,2009-12-02T01:06:00Z,28.1930,-82.7890,1.0,22.847,1111122 
COMPS,ioos:station:USF.COMPS:ANC:1,2009-12-02T01:12:00Z,28.1930,-82.7890,1.0,22.833,1111122 
COMPS,ioos:station:USF.COMPS:ANC:1,2009-12-02T01:18:00Z,28.1930,-82.7890,1.0,22.872,1111122 
COMPS,ioos:station:USF.COMPS:ANC:1,2009-12-02T01:24:00Z,28.1930,-82.7890,1.0,22.855,1111122 
COMPS,ioos:station:USF.COMPS:ANC:1,2009-12-02T01:30:00Z,28.1930,-82.7890,1.0,22.942,1111122 
COMPS,ioos:station:USF.COMPS:ANC:1,2009-12-02T01:36:00Z,28.1930,-82.7890,1.0,22.905,1111122 